Theta_e
302 302 302 301 301 301 301 301 301 301 301 301 300 301 302 303 305 306 306 306 303 300 300 305 306 305 312 318 319 319 316 314 318 319 320 320 320 320 319 321 330 329 329 329 331
302 302 302 301 301 301 301 301 301 301 301 302 304 304 303 303 304 306 306 306 305 301 301 303 305 305 312 315 317 318 315 318 316 316 319 320 320 320 321 327 324 327 329 329 332
302 302 302 301 301 301 302 301 301 302 303 303 304 305 304 304 305 306 307 306 306 304 301 304 306 308 311 311 311 318 318 316 316 312 310 317 320 320 321 323 321 326 326 330 332
302 302 302 301 301 301 302 302 303 303 304 304 304 304 305 304 307 305 307 307 307 305 302 304 306 309 309 310 309 314 310 308 309 307 309 315 317 319 311 311 321 326 326 329 331
303 302 301 301 301 301 302 302 304 304 304 303 305 305 305 306 306 305 306 306 307 306 305 304 305 307 309 308 309 309 307 307 307 306 309 311 318 315 308 307 324 325 326 328 330
303 302 301 301 301 301 302 303 305 304 304 304 304 305 306 307 306 306 306 307 307 306 305 307 305 304 306 307 307 306 306 307 308 307 309 312 314 315 308 306 309 319 322 325 327
303 302 302 301 301 301 302 304 305 304 304 305 305 303 305 306 306 307 307 307 307 308 308 307 307 308 306 308 306 306 307 307 308 308 309 309 314 308 305 306 306 307 311 310 312
302 303 302 301 301 301 302 304 305 304 303 303 304 304 306 305 306 306 307 307 307 307 307 307 307 306 307 306 308 308 309 310 308 307 308 309 314 306 305 307 307 306 307 306 306
302 303 302 302 302 301 301 302 302 304 305 304 304 305 306 305 306 306 307 307 308 307 308 307 307 307 307 310 311 310 311 310 309 306 307 309 309 305 304 305 306 305 304 304 305
302 302 303 302 302 301 301 301 302 303 305 303 303 304 304 305 305 306 307 307 307 308 308 307 308 310 310 311 313 311 310 309 309 307 307 308 307 305 304 304 304 304 304 303 302
302 302 303 302 302 302 302 301 301 303 303 304 304 304 305 305 305 306 307 307 307 307 310 307 310 310 309 308 307 308 309 309 308 307 307 307 306 305 304 304 303 303 303 302 302
302 302 303 302 302 302 302 302 302 302 302 302 303 304 304 305 305 305 306 307 307 309 307 310 310 307 306 307 308 308 309 309 308 307 307 307 307 305 304 303 302 302 302 301 301
303 301 302 302 302 301 302 303 303 302 303 300 302 303 304 304 305 306 306 305 307 308 309 310 308 306 307 308 309 309 309 309 309 308 306 307 308 307 305 304 303 301 301 300 299
305 301 302 302 302 301 301 302 304 302 312 302 301 302 304 304 305 304 305 305 306 308 307 308 306 307 308 308 308 310 307 307 308 309 311 306 311 308 307 306 304 302 301 300 299
308 301 301 302 302 301 301 302 304 302 326 299 300 302 303 305 303 304 303 305 307 304 306 308 308 308 308 307 307 309 306 306 308 309 308 308 310 308 306 307 305 302 300 299 299
309 304 301 302 301 300 300 301 303 317 317 301 299 303 303 303 303 305 303 302 301 303 304 304 302 306 307 306 305 305 305 303 304 307 311 307 308 308 308 306 304 302 300 299 298
309 306 301 301 301 300 300 301 316 322 298 302 302 302 303 303 304 305 304 304 305 311 305 303 304 303 304 307 306 307 306 313 313 312 312 304 307 308 306 303 302 301 300 299 298
311 307 302 301 301 301 300 308 319 300 300 298 301 301 303 302 303 305 305 306 303 301 304 306 311 303 303 305 306 306 306 310 314 312 310 304 309 308 304 301 300 300 299 299 298
310 307 303 301 301 301 300 315 316 304 298 301 298 301 301 302 303 304 305 306 303 301 307 306 306 301 303 304 305 307 308 306 307 302 305 306 305 305 303 303 301 300 299 298 298
311 307 304 302 301 301 306 311 301 296 299 300 305 298 302 301 303 304 304 305 305 302 299 302 307 299 301 302 304 307 306 308 307 310 311 309 306 308 306 304 303 301 299 299 298
310 306 304 301 300 300 311 306 297 297 300 300 299 300 301 302 302 303 303 304 303 302 301 305 302 305 301 305 305 306 306 305 306 306 309 309 309 303 304 303 302 301 299 299 298
309 305 303 300 301 291 305 296 297 299 300 298 298 300 302 301 302 303 304 303 300 302 302 302 302 305 304 301 299 303 305 306 307 306 305 305 308 303 303 302 301 301 299 298 297
308 302 303 300 308 304 295 298 299 301 301 300 300 300 300 301 301 302 303 300 300 302 303 302 302 307 305 304 303 304 305 306 305 304 304 308 310 301 301 301 300 300 299 298 296
308 302 301 300 298 300 300 300 300 299 300 300 300 300 301 300 300 300 302 301 300 302 301 300 298 302 305 305 303 302 302 305 305 306 305 305 307 304 302 301 300 300 299 297 296
308 304 303 304 301 298 299 300 301 301 300 300 301 301 301 300 299 301 301 301 301 303 301 301 300 295 297 298 298 300 301 302 306 306 305 303 300 303 302 301 300 300 299 298 297
308 306 302 299 299 299 300 301 302 301 301 301 301 301 300 300 301 301 301 301 301 302 301 299 299 295 296 294 298 299 300 300 300 303 305 305 305 304 301 301 298 301 300 299 297
310 309 308 299 298 301 301 301 301 301 300 300 300 301 300 300 298 297 298 298 299 302 300 299 298 297 301 291 292 302 299 300 303 303 304 305 306 303 302 300 300 301 300 300 298
Wind_Speed
9 9 10 11 11 12 12 12 12 12 12 12 11 7 5 8 21 21 24 20 19 14 12 9 7 6 8 6 5 1 3 3 2 3 2 8 6 5 4 3 2 3 2 3 16
8 9 10 11 12 12 12 11 11 11 13 12 13 13 7 2 7 30 22 17 15 16 13 11 9 7 5 4 4 2 2 2 4 6 6 11 8 7 2 4 6 5 5 9 21
8 9 10 11 11 12 12 12 11 12 12 12 10 13 13 3 6 20 21 18 17 18 12 10 8 8 9 5 6 3 2 2 2 7 10 10 8 14 1 6 12 14 6 13 22
8 9 10 11 12 12 12 12 12 12 12 12 12 10 11 8 4 19 18 17 19 16 10 13 5 4 4 5 5 3 6 5 5 8 7 7 11 7 17 10 14 13 7 10 17
7 8 9 10 11 12 11 10 11 11 12 13 16 16 9 14 11 16 14 16 15 14 16 9 15 6 6 4 5 6 5 4 9 4 5 8 5 4 17 23 13 10 7 8 9
7 7 8 9 10 11 10 10 9 8 7 9 11 21 18 12 16 15 14 15 14 16 15 18 9 11 9 4 4 1 2 9 10 6 6 5 5 1 20 24 15 15 16 11 9
6 6 7 8 10 10 9 8 8 6 5 7 6 4 27 14 14 12 13 13 14 16 17 14 13 6 4 3 3 0 2 2 21 14 5 7 4 13 22 11 16 19 16 16 15
6 6 8 8 10 9 9 9 7 7 9 10 5 10 9 19 15 10 13 10 13 13 12 13 13 9 5 2 2 1 1 2 12 19 5 5 5 18 18 10 16 16 16 15 14
5 7 8 9 10 8 4 8 15 2 4 10 9 7 5 18 23 17 16 9 8 12 12 10 9 9 5 1 3 5 4 7 2 21 5 5 3 16 15 12 15 16 16 15 13
5 7 8 9 9 9 6 3 7 10 4 4 11 6 13 12 23 15 12 12 7 6 6 8 8 7 13 6 3 5 3 3 6 9 10 11 10 11 15 16 16 16 16 16 17
4 6 7 8 8 8 7 1 3 4 23 14 11 8 8 11 19 19 8 14 9 11 4 9 11 11 10 6 2 2 1 4 2 5 5 9 9 9 13 18 19 18 18 18 17
4 5 6 7 7 8 7 2 6 8 13 13 11 12 8 12 8 25 12 6 11 8 3 4 11 8 3 5 3 4 2 5 1 6 2 5 7 6 13 14 16 16 17 18 16
3 4 6 6 5 6 10 8 10 8 5 7 10 8 10 8 9 19 15 6 7 8 13 9 4 5 2 8 2 4 7 6 3 5 1 4 4 3 2 8 13 16 15 16 17
3 4 6 6 3 6 8 5 5 3 3 8 6 6 10 2 4 16 12 4 5 5 3 5 5 4 4 4 7 3 6 5 4 4 2 1 0 6 1 1 12 16 17 17 18
2 3 4 5 3 5 5 3 3 2 3 3 4 4 8 7 3 12 14 7 5 4 2 2 5 6 5 4 5 4 8 3 1 2 2 4 4 5 0 1 11 17 17 17 17
2 2 3 3 4 5 5 2 1 3 0 1 3 6 2 7 2 6 7 7 4 2 4 3 1 3 5 3 2 11 3 1 1 1 3 1 3 5 2 2 8 14 14 15 17
3 1 1 2 2 4 5 1 4 4 1 1 2 3 3 6 5 7 4 9 5 2 6 4 2 2 4 3 0 11 3 1 2 1 1 1 4 4 4 3 7 10 12 13 15
4 2 1 1 1 3 5 2 3 2 3 0 1 2 3 5 3 4 2 3 7 4 3 4 0 6 7 4 4 6 5 3 4 3 3 1 3 3 4 2 5 5 7 11 14
6 3 2 2 1 2 3 3 4 5 3 6 2 2 1 0 2 1 4 2 2 2 3 3 2 3 3 2 4 4 4 2 1 2 3 1 2 4 5 4 5 6 9 12 14
7 4 5 4 2 1 4 3 2 1 3 2 2 1 1 1 1 0 1 1 2 1 1 3 4 1 3 1 1 3 1 1 1 4 3 1 4 3 2 3 5 6 10 13 15
9 3 4 6 5 2 3 3 2 4 2 1 3 3 1 1 0 1 2 2 2 2 1 2 1 1 2 4 4 2 1 1 1 2 2 4 1 2 3 5 6 6 9 12 14
10 3 7 9 2 2 3 5 4 5 4 1 3 2 3 5 2 2 2 1 4 6 2 2 0 3 2 1 3 3 4 3 2 1 1 2 4 3 6 7 7 7 9 11 12
9 5 9 11 3 2 1 3 3 4 4 4 3 1 1 3 1 2 2 2 5 3 3 5 2 3 3 1 1 4 4 3 1 1 6 2 2 3 8 9 8 9 10 12 12
10 3 3 7 4 5 5 3 3 4 3 3 3 4 3 1 1 3 3 3 5 3 4 6 1 3 3 1 2 4 5 7 6 4 3 8 7 7 7 7 6 9 9 9 10
10 5 7 4 5 5 4 6 5 5 3 6 2 7 5 4 1 4 3 4 2 8 4 2 2 3 6 9 6 9 10 8 12 11 6 1 5 10 9 10 13 8 7 8 9
13 8 8 4 9 8 5 6 8 4 8 4 5 6 8 5 5 7 8 6 4 7 4 3 1 1 4 1 2 7 12 12 13 16 16 15 20 13 10 10 12 12 9 8 7
17 16 8 8 8 5 5 6 7 10 6 2 8 4 7 8 4 1 5 4 6 6 7 4 3 1 4 2 6 6 7 14 8 8 13 8 9 2 3 6 11 13 12 10 7
Wind_Direction
43 41 40 34 31 27 22 19 13 12 15 13 9 22 45 79 37 36 37 11 2 7 16 24 35 89 91 73 56 24 248 266 8 317 36 2 356 14 334 271 15 2 317 192 171
39 40 38 30 27 26 21 16 14 18 13 31 43 34 45 82 19 32 25 14 8 17 25 33 65 93 70 50 34 11 277 58 28 8 339 333 358 342 327 106 19 2 331 174 171
38 38 33 31 27 26 24 20 18 24 40 50 52 36 34 52 61 10 17 14 17 22 20 31 67 84 76 60 23 29 43 27 35 340 332 324 359 23 8 51 359 317 278 175 170
36 34 31 28 24 27 28 23 28 45 53 63 45 28 41 52 52 5 11 15 21 25 30 42 59 68 68 64 15 105 35 1 335 324 325 341 334 58 33 2 329 328 207 176 166
39 30 30 25 22 25 29 28 44 54 79 79 36 37 59 56 28 6 14 14 23 30 42 57 56 64 72 61 69 52 8 21 351 309 306 311 27 53 19 358 5 44 99 125 143
29 22 30 26 21 24 26 33 45 79 86 22 39 55 61 65 19 14 17 25 34 46 50 59 65 83 83 66 62 137 180 33 17 14 22 314 39 319 349 351 35 61 80 97 108
25 12 18 23 21 23 32 38 53 73 39 13 28 47 49 47 24 25 17 33 51 61 59 57 57 60 99 109 44 327 191 31 21 359 30 326 93 15 348 5 52 56 68 70 66
18 8 11 17 19 26 45 46 60 79 64 33 58 70 74 34 22 31 30 48 65 57 54 54 46 57 63 90 77 17 276 330 26 7 12 324 120 7 8 37 47 47 51 56 50
12 3 9 10 15 21 42 59 39 243 12 41 59 88 63 24 24 30 38 61 70 59 54 56 50 50 22 87 124 44 40 17 50 21 338 355 49 10 20 43 49 44 37 40 45
12 8 13 10 11 7 8 350 63 55 97 70 55 74 31 359 19 29 40 46 48 65 45 42 49 60 32 30 48 6 28 37 37 17 43 66 72 41 35 49 45 40 37 32 27
13 9 13 9 15 13 6 101 106 57 66 67 57 78 22 16 28 24 47 48 41 51 51 32 62 40 19 14 46 8 19 23 49 15 57 69 68 52 45 48 38 33 29 27 21
7 1 12 12 14 21 24 104 105 135 88 66 60 58 35 18 20 22 43 59 39 55 339 86 51 360 274 11 65 43 2 27 226 13 126 125 99 81 51 48 40 28 24 18 12
360 360 9 8 22 19 43 83 111 122 87 46 39 30 20 26 33 10 28 36 33 44 46 77 14 332 125 39 20 44 14 337 303 334 71 201 182 199 120 43 37 33 26 18 11
0 5 8 11 23 10 36 78 122 112 90 356 6 18 6 50 55 13 18 48 50 45 31 66 350 11 38 52 353 294 3 302 283 228 199 269 192 200 270 67 31 22 17 11 6
357 7 16 29 24 22 23 52 116 84 65 12 350 357 31 77 338 10 21 51 59 36 293 56 5 359 20 0 334 327 327 305 298 190 205 182 260 126 138 215 8 9 7 7 2
312 354 14 18 25 26 19 49 51 35 125 9 327 357 22 21 44 353 28 60 77 73 43 42 355 332 332 316 308 327 248 191 132 234 231 110 281 144 161 6 349 359 5 3 359
249 293 55 27 15 360 358 47 27 110 17 11 45 19 60 7 14 20 39 40 27 34 16 346 28 335 343 339 328 4 322 245 207 228 2 43 270 23 133 60 358 347 358 2 1
223 254 85 65 339 351 2 35 77 26 238 8 64 100 84 346 22 22 67 52 48 47 77 6 172 4 355 55 325 2 1 29 309 325 330 317 260 86 137 98 360 345 348 348 354
216 200 208 208 256 352 31 54 203 192 154 158 130 89 80 360 303 95 52 84 39 14 53 351 272 333 351 12 332 358 36 353 277 135 263 307 232 164 182 249 326 334 338 345 344
204 210 219 211 194 106 80 223 166 168 118 139 152 242 164 111 223 31 85 87 139 68 145 133 300 66 327 309 69 343 352 288 30 337 319 319 283 339 193 292 328 333 339 341 342
186 200 201 183 171 140 147 187 169 177 143 134 170 143 147 154 131 128 125 167 187 111 132 104 205 90 259 37 349 339 335 3 342 314 325 316 81 172 245 304 314 323 328 334 339
175 180 187 165 122 66 143 166 142 160 170 153 135 141 160 167 155 181 152 164 170 153 111 121 235 289 92 259 321 289 293 295 287 196 250 293 282 172 242 283 294 290 311 327 335
173 156 178 177 146 157 126 129 171 144 185 174 175 64 98 170 188 198 166 154 160 163 167 165 168 303 158 167 104 266 230 251 79 214 223 238 249 236 263 278 273 275 298 319 332
165 119 155 201 172 144 153 166 153 191 150 167 129 121 127 131 353 186 183 195 187 158 150 134 146 246 264 268 97 233 233 229 219 245 197 241 297 275 257 246 281 267 287 315 333
167 179 169 182 220 179 130 139 144 179 211 195 164 211 174 157 157 222 171 188 155 156 132 211 219 198 267 267 256 254 249 222 229 234 229 68 239 268 264 261 280 261 268 304 323
162 156 159 135 134 134 167 206 167 152 160 216 228 183 192 183 200 194 179 206 187 176 181 191 174 161 275 285 213 268 247 235 242 246 257 265 280 276 290 243 230 218 238 270 299
185 164 165 157 140 140 204 177 190 157 185 153 204 129 208 228 194 131 158 142 160 168 177 179 157 48 268 329 306 275 232 200 217 220 215 206 229 261 282 242 229 220 242 263 276